STARLINK-1795, 46696

Orbit data source: Space-Track

STARLINK-1795, 46696 is a payload satellite owned by SpaceX/Seattle (US) in LEO that was launched on Sun, 18 Oct 2020 UTC via an FALCON 9 launch vehicle from the Air Force Eastern Test Range (AFETR). Payloads include a variety of satellites, spacecraft, and rockets equipped with specific instruments for various scientific and technological missions. These include communications satellites like Starlink; space stations such as the ISS; scientific satellites like the Hubble; Earth observation satellites from companies like Planet Labs, Umbra, and HawkEye 360; GPS; miniature CubeSats for education and research; and military/defense satellites.

Loading next visibility...
STARLINK-1795 details
Identifier
46696, 2020-073AC
Orbit
LEO
Last TLE update1 day ago
Origin
Flag of USSpaceX/Seattle (US)
ManufacturerSpaceX/Seattle
MissionOperational Commercial Communications
Bus & MotorSTARLINK, Unknown motor
Mass260 kg wet, ~248 kg dry
Launch date (UTC)
2020-10-18 (4 years ago)
Launch vehicle
FALCON 9
Launch site
Air Force Eastern Test Range (AFETR)
Object type
Payload
Rocket body
Debris
Shape & HBRBox + 1 Pan, 8.86 m
Radar Cross Section13.562 m², Large (>1 m²)

Expand to show TLE details & history

TLE from 1 day ago
0 STARLINK-1795
1 46696U 20073AC  24360.31381063  .00003258  00000-0  23757-3 0  9998
2 46696  53.0556  34.0506 0001640 103.3126 256.8046 15.06391119231184
Epoch: 2024-12-25T07:31Z
Definitive object data (Epoch: 2024-12-25T07:31:53.238Z)
Latitude-0.00001°
Longitude-173.23058°
Altitude548.377 km
Speed7.589 km/s
True Right ascension02h 16m 12s
True Declination0° 00' 00"
Sunlit
Object was in full shadow at TLE epoch
Visualization TLE readout
Latitude3.70484°
Longitude-1.21594°
Altitude547.272 km
Speed7.59 km/s
Apparent Right ascension16h 44m 48s
Apparent Declination-36° 31' 50"
Sunlit
Object is in daylight
Visualization observer readout
Local Sidereal Time10:43:52
Azimuth119.491° SE
Elevation-22.61°
Doppler factor1
Orbital elements
Apogee altitude548.645 km
Perigee altitude546.374 km
Semi-major axis6,925.646 km
Eccentricity0.000164
Inclination53.0556°
RAAN34.0506°
Arg. of periapsis103.3126°
True anomaly256.7863°
Mean anomaly256.8046°
Eccentric anomaly256.79545°
Mean motion3.76576 °/min
BSTAR0.00023757
Orbital period95.6 mins
Loading maneuver chart data...
Loading historical data...
Loading historical data...
Loading historical data...
Loading historical data...
Loading historical data...
Loading historical data...
Loading historical data...

STARLINK-1795 Visibility forecast

Observer location: undefined°, undefined

Span
Click to sort rows by Start time (UTC) header in descending order
Start Az.
Max El. time (UTC)
Max El. Az.
Max El.
End time (UTC)
End Az.
7 mins2024-12-26 12:43:32.622Z291.004° WNW2024-12-26 12:46:32.622Z242.354° WSW27.913°2024-12-26 12:50:32.622Z164.754° S
6 mins2024-12-27 04:17:32.622Z196.666° SSW2024-12-27 04:19:32.622Z148.468° SSE34.914°2024-12-27 04:23:32.622Z62.226° ENE
5 mins2024-12-27 05:57:32.622Z286.04° WNW2024-12-27 05:59:32.622Z333.627° NNW26.914°2024-12-27 06:02:32.622Z30.287° NE
6 mins2024-12-27 10:58:32.622Z325.445° NNW2024-12-27 11:01:32.622Z47.697° ENE36.142°2024-12-27 11:04:32.622Z106.37° ESE
|